CW4588 Weather Reports


Display with metric or nautical units.
time (UTC)temp
F
wind
direction
speed
MPH
gust
MPH
rain 1hr
in
rain 24hr
in
rain mn
in
humidity
%
barometer
mb
20260904185538 49 191 0.0 0.0 0.00 0.00 0.05 89 992.6
20260904185030 49 191 0.0 0.0 0.00 0.00 0.05 88 992.6
20260904184538 50 191 0.0 0.0 0.00 0.00 0.05 88 992.6
20260904184023 50 191 0.0 0.0 0.00 0.00 0.05 88 992.8
20260904183533 50 191 0.0 0.0 0.00 0.00 0.05 87 992.8
20260904183051 51 191 0.0 0.0 0.00 0.00 0.05 86 992.8
20260904182537 51 191 0.0 0.0 0.00 0.00 0.05 86 992.7
20260904182047 51 191 0.0 0.0 0.00 0.00 0.05 86 992.7
20260904181532 52 191 0.0 0.0 0.00 0.00 0.05 86 992.7
20260904181038 52 191 0.0 0.0 0.00 0.00 0.05 85 992.8
20260904180539 53 191 0.0 0.0 0.00 0.00 0.05 84 992.8
20260904180026 53 191 0.0 0.0 0.00 0.00 0.05 84 992.8
20260904175528 53 191 0.0 0.0 0.00 0.00 0.05 84 992.7
20260904175023 54 191 0.0 0.0 0.00 0.00 0.05 84 992.7
20260904174527 54 191 0.0 0.0 0.00 0.00 0.05 84 992.7
20260904174044 54 191 0.0 0.0 0.00 0.00 0.05 84 992.6
20260904173527 55 191 0.0 0.0 0.00 0.00 0.05 84 992.6
20260904173030 55 190 0.0 0.0 0.00 0.00 0.05 85 992.6
20260904172544 55 190 0.0 0.0 0.00 0.00 0.05 85 992.6
20260904172033 55 190 0.0 0.0 0.00 0.00 0.05 85 992.6
20260904171558 55 190 0.0 0.0 0.00 0.00 0.05 85 992.6
20260904171027 55 190 0.0 0.0 0.00 0.00 0.05 85 992.7
20260904170534 55 242 0.0 0.0 0.00 0.00 0.05 85 992.7
20260904170042 55 242 0.0 0.0 0.00 0.00 0.05 84 992.6
20260904165534 55 143 0.0 0.0 0.00 0.00 0.05 85 992.5
20260904165047 56 143 0.0 0.0 0.00 0.00 0.05 85 992.5
20260904164547 56 143 0.0 0.0 0.00 0.00 0.05 84 992.5
20260904164034 56 143 0.0 0.0 0.00 0.00 0.05 83 992.6
20260904163524 56 127 0.0 0.0 0.00 0.00 0.05 83 992.6
20260904163103 56 126 0.0 0.0 0.00 0.00 0.05 82 992.6
20260904162531 56 126 0.0 0.0 0.00 0.00 0.05 82 992.6
20260904162036 56 126 0.0 0.0 0.00 0.00 0.05 81 992.6
20260904161530 56 33 0.0 0.0 0.00 0.00 0.05 80 992.6
20260904161044 57 109 0.0 0.0 0.00 0.00 0.05 81 992.6
20260904160524 57 26 0.0 0.0 0.00 0.00 0.05 80 992.6
20260904160031 57 26 1.0 0.0 0.00 0.00 0.05 79 992.6
20260904155527 57 24 1.0 0.0 0.00 0.00 0.05 80 992.6
20260904155032 57 13 0.0 0.0 0.00 0.00 0.05 81 992.6
20260904154536 58 10 0.0 0.0 0.00 0.00 0.05 81 992.6
20260904154026 58 10 0.0 0.0 0.00 0.00 0.05 80 992.7
20260904153532 58 10 0.0 0.0 0.00 0.00 0.05 79 992.7
20260904153045 59 79 0.0 0.0 0.00 0.00 0.05 79 992.7
20260904152529 59 79 2.0 0.0 0.00 0.00 0.05 75 992.9
20260904152102 59 17 4.0 0.0 0.00 0.00 0.05 72 992.9
20260904151525 60 16 3.0 0.0 0.00 0.00 0.04 70 992.9
20260904151036 61 27 1.0 0.0 0.00 0.00 0.04 66 992.9
20260904150520 62 16 1.0 0.0 0.00 0.00 0.04 62 993.0
20260904150025 62 310 1.0 0.0 0.00 0.00 0.04 61 992.9
20260904145535 62 9 0.0 0.0 0.00 0.00 0.04 59 992.9
20260904145020 62 278 0.0 0.0 0.00 0.00 0.04 59 992.9
20260904144548 62 334 0.0 0.0 0.00 0.00 0.04 62 992.9
20260904144041 62 235 0.0 0.0 0.00 0.00 0.04 60 992.8
20260904143526 62 342 0.0 0.0 0.00 0.00 0.04 62 992.8
20260904143034 62 156 0.0 0.0 0.00 0.00 0.04 60 992.8
20260904142548 62 228 0.0 0.0 0.00 0.00 0.04 59 992.9
20260904142036 62 195 0.0 0.0 0.00 0.00 0.04 59 992.9
20260904141524 62 280 0.0 0.0 0.00 0.00 0.04 60 992.9
20260904141028 63 192 0.0 0.0 0.00 0.00 0.04 60 993.0
20260904140534 63 177 0.0 0.0 0.00 0.00 0.04 59 993.0
20260904140032 63 271 0.0 0.0 0.00 0.00 0.04 59 993.0
20260904135536 63 229 0.0 0.0 0.00 0.00 0.04 58 993.1
20260904135023 64 288 0.0 0.0 0.00 0.00 0.04 60 993.1
20260904134530 64 208 0.0 0.0 0.00 0.00 0.04 60 993.1
20260904134044 63 249 0.0 0.0 0.00 0.00 0.04 62 993.2
20260904133529 63 230 0.0 0.0 0.00 0.00 0.04 62 993.2
20260904133036 62 219 0.0 0.0 0.00 0.00 0.04 62 993.2
20260904132529 62 219 0.0 0.0 0.00 0.00 0.04 60 993.2
20260904132055 62 223 0.0 0.0 0.00 0.00 0.04 61 993.2
20260904131521 62 191 0.0 0.0 0.00 0.00 0.04 59 993.2
20260904131057 63 191 0.0 0.0 0.00 0.00 0.04 58 993.3
20260904130524 63 205 0.0 0.0 0.00 0.00 0.04 59 993.3
20260904130041 64 230 0.0 0.0 0.00 0.00 0.04 57 993.3
20260904125524 65 242 0.0 0.0 0.00 0.00 0.04 57 993.4
20260904125038 65 280 0.0 0.0 0.00 0.00 0.04 56 993.4
20260904124528 65 280 0.0 0.0 0.00 0.00 0.04 56 993.4
20260904124033 65 157 0.0 0.0 0.00 0.00 0.04 55 993.5
20260904123539 65 171 0.0 0.0 0.00 0.00 0.04 51 993.5
20260904123031 65 252 0.0 0.0 0.00 0.00 0.04 55 993.5
20260904122557 65 201 0.0 0.0 0.00 0.00 0.04 54 993.5
20260904122031 65 223 0.0 0.0 0.00 0.00 0.04 54 993.5
20260904121537 65 161 0.0 0.0 0.00 0.00 0.04 56 993.5
20260904121023 65 197 0.0 0.0 0.00 0.00 0.04 53 993.7
20260904120603 65 146 0.0 0.0 0.00 0.00 0.04 53 993.7
20260904120030 65 154 0.0 0.0 0.00 0.00 0.04 53 993.7
20260904115534 65 228 0.0 0.0 0.00 0.00 0.04 52 993.8
20260904115020 65 188 0.0 0.0 0.00 0.00 0.04 53 993.8
20260904114532 65 235 0.0 0.0 0.00 0.00 0.04 56 993.8
20260904114111 65 115 0.0 0.0 0.00 0.00 0.04 57 993.9
20260904113533 64 94 0.0 0.0 0.00 0.00 0.04 55 993.9
20260904113021 63 150 0.0 0.0 0.00 0.00 0.04 61 993.9
20260904112541 62 156 0.0 0.0 0.00 0.00 0.04 59 994.1
20260904112036 61 229 0.0 0.0 0.00 0.00 0.04 63 994.1
20260904111525 60 199 0.0 0.0 0.00 0.00 0.04 65 994.1
20260904111101 60 174 0.0 0.0 0.00 0.00 0.04 69 994.2
20260904110525 60 174 0.0 0.0 0.00 0.00 0.04 69 994.2
20260904110032 60 174 0.0 0.0 0.00 0.00 0.04 68 994.2
20260904105546 61 228 0.0 0.0 0.00 0.00 0.04 68 994.1
20260904105025 61 34 0.0 0.0 0.00 0.00 0.04 68 994.1
20260904104542 61 34 0.0 0.0 0.00 0.00 0.04 68 994.1
20260904104053 61 34 0.0 0.0 0.00 0.00 0.04 68 994.1
20260904103539 61 34 0.0 0.0 0.00 0.00 0.04 59 994.1
20260904103024 62 34 0.0 0.0 0.00 0.00 0.04 60 994.1
20260904102541 63 34 0.0 0.0 0.00 0.00 0.04 59 994.2
20260904102024 63 332 1.0 0.0 0.00 0.00 0.04 55 994.2
20260904101528 64 335 2.0 0.0 0.00 0.00 0.04 55 994.3
20260904101040 65 12 2.0 0.0 0.00 0.00 0.04 54 994.4
20260904100543 65 41 1.0 0.0 0.00 0.00 0.04 56 994.4
20260904100055 65 342 0.0 0.0 0.00 0.00 0.04 55 994.4
20260904095535 65 92 0.0 0.0 0.00 0.00 0.04 57 994.4
20260904095022 65 133 0.0 0.0 0.00 0.00 0.04 58 994.4
20260904094532 65 112 0.0 0.0 0.00 0.00 0.04 57 994.4
20260904094037 65 132 0.0 0.0 0.00 0.00 0.04 57 994.5
20260904093532 65 70 0.0 0.0 0.00 0.00 0.00 56 994.5
20260904093030 64 214 0.0 0.0 0.00 0.00 0.00 58 994.5
20260904092551 63 86 0.0 0.0 0.00 0.00 0.00 60 994.6
20260904092027 62 204 0.0 0.0 0.00 0.00 0.00 58 994.5
20260904091540 62 226 0.0 0.0 0.00 0.00 0.00 63 994.5
20260904091045 61 103 0.0 0.0 0.00 0.00 0.00 64 994.6
20260904090530 60 74 0.0 0.0 0.00 0.00 0.00 71 994.6
20260904090024 60 126 0.0 0.0 0.00 0.00 0.00 72 994.6
20260904085525 60 129 0.0 0.0 0.00 0.00 0.00 72 994.6
20260904085042 61 129 0.0 0.0 0.00 0.00 0.00 72 994.6
20260904084527 61 129 0.0 0.0 0.00 0.00 0.00 72 994.6
20260904084031 61 129 0.0 0.0 0.00 0.00 0.00 68 994.8
20260904083542 62 129 0.0 0.0 0.00 0.00 0.00 70 994.8
20260904083025 62 129 0.0 0.0 0.00 0.00 0.00 68 994.8
20260904082530 63 129 0.0 0.0 0.00 0.00 0.00 68 994.7
20260904082047 63 129 0.0 0.0 0.00 0.00 0.00 67 994.7
20260904081535 63 247 0.0 0.0 0.00 0.00 0.00 65 994.7
20260904081042 64 247 0.0 0.0 0.00 0.00 0.00 64 994.7
20260904080527 64 281 0.0 0.0 0.00 0.00 0.00 64 994.7
20260904080022 64 319 0.0 0.0 0.00 0.00 0.00 68 994.7
20260904075527 64 342 0.0 0.0 0.00 0.00 0.00 67 994.7
20260904075024 64 342 0.0 0.0 0.00 0.00 0.00 68 994.7
20260904074539 63 322 0.0 0.0 0.00 0.00 0.00 71 994.7
20260904074038 63 336 0.0 0.0 0.00 0.00 0.00 69 994.8
20260904073545 63 341 0.0 0.0 0.00 0.00 0.00 68 994.8
20260904073027 63 287 0.0 0.0 0.00 0.00 0.00 69 994.8
20260904072537 62 240 0.0 0.0 0.00 0.00 0.00 70 994.8
20260904072022 62 235 0.0 0.0 0.00 0.00 0.00 72 994.8
20260904071524 62 315 0.0 0.0 0.00 0.00 0.00 72 994.8
20260904071032 61 254 0.0 0.0 0.00 0.00 0.00 72 994.9
20260904070545 61 295 0.0 0.0 0.00 0.00 0.00 74 994.9
20260904070031 61 250 0.0 0.0 0.00 0.00 0.00 75 994.9
20260904065533 60 185 0.0 0.0 0.00 0.00 0.00 75 995.0
20260904065045 60 300 0.0 0.0 0.00 0.00 0.00 78 995.0
20260904064551 59 300 0.0 0.0 0.00 0.00 0.00 80 995.0
20260904064030 58 252 0.0 0.0 0.00 0.00 0.00 82 995.1
20260904063534 58 271 0.0 0.0 0.00 0.00 0.00 84 995.1
20260904063044 57 280 0.0 0.0 0.00 0.00 0.00 87 995.1
20260904062528 57 300 0.0 0.0 0.00 0.00 0.00 89 995.1
20260904062033 56 262 0.0 0.0 0.00 0.00 0.00 92 995.1
20260904061538 55 262 0.0 0.0 0.00 0.00 0.00 94 995.1
20260904061033 54 238 0.0 0.0 0.00 0.00 0.00 96 995.3
20260904060536 54 238 0.0 0.0 0.00 0.00 0.00 99 995.3
20260904060025 53 283 0.0 0.0 0.00 0.00 0.00 100 995.3
20260904055534 53 281 0.0 0.0 0.00 0.00 0.00 100 995.4
20260904055020 52 171 0.0 0.0 0.00 0.00 0.00 100 995.4
20260904054529 52 94 0.0 0.0 0.00 0.00 0.00 100 995.4
20260904054045 51 94 0.0 0.0 0.00 0.00 0.00 100 995.4
20260904053535 50 94 0.0 0.0 0.00 0.00 0.00 100 995.4
20260904053020 49 94 0.0 0.0 0.00 0.00 0.00 100 995.4
20260904052537 48 92 0.0 0.0 0.00 0.00 0.00 100 995.6
20260904052041 47 94 0.0 0.0 0.00 0.00 0.00 100 995.6
20260904051528 46 92 0.0 0.0 0.00 0.00 0.00 100 995.5
20260904051031 45 92 0.0 0.0 0.00 0.00 0.00 100 995.5
20260904050530 44 94 0.0 0.0 0.00 0.00 0.00 100 995.5
20260904050034 44 95 0.0 0.0 0.00 0.00 0.00 100 995.5
20260904045549 44 95 0.0 0.0 0.00 0.00 0.00 100 995.6
20260904045048 44 95 0.0 0.0 0.00 0.00 0.00 100 995.6
20260904044546 44 95 0.0 0.0 0.00 0.00 0.00 100 995.6
20260904044031 44 95 0.0 0.0 0.00 0.00 0.00 100 995.6
20260904043538 44 95 0.0 0.0 0.00 0.00 0.00 100 995.6
20260904043024 44 95 0.0 0.0 0.00 0.00 0.00 100 995.6
20260904042534 44 95 0.0 0.0 0.00 0.00 0.00 100 995.7
20260904042050 44 95 0.0 0.0 0.00 0.00 0.00 100 995.7
20260904041547 44 95 0.0 0.0 0.00 0.00 0.00 100 995.7
20260904041032 43 95 0.0 0.0 0.00 0.00 0.00 100 995.9
20260904040537 44 95 0.0 0.0 0.00 0.00 0.00 100 995.9
20260904040035 44 95 0.0 0.0 0.00 0.00 0.00 99 995.9
20260904035550 44 95 0.0 0.0 0.00 0.00 0.00 99 996.1
20260904035036 44 95 0.0 0.0 0.00 0.00 0.00 99 996.1
20260904034530 44 95 0.0 0.0 0.00 0.00 0.00 99 996.1
20260904034039 44 95 0.0 0.0 0.00 0.00 0.00 99 996.1
20260904033523 44 95 0.0 0.0 0.00 0.00 0.00 99 996.1
20260904033039 44 95 0.0 0.0 0.00 0.00 0.00 99 996.1
20260904032523 44 95 0.0 0.0 0.00 0.00 0.00 99 996.1
20260904032029 44 95 0.0 0.0 0.00 0.00 0.00 99 996.1
20260904031606 44 95 0.0 0.0 0.00 0.00 0.00 98 996.1
20260904031056 44 95 0.0 0.0 0.00 0.00 0.00 98 996.3
20260904030522 43 60 0.0 0.0 0.00 0.00 0.00 98 996.3
20260904030039 43 60 0.0 0.0 0.00 0.00 0.00 97 996.3
20260904025532 43 60 0.0 0.0 0.00 0.00 0.00 97 996.2
20260904025022 43 60 0.0 0.0 0.00 0.00 0.00 97 996.2
20260904024532 43 60 0.0 0.0 0.00 0.00 0.00 97 996.2
20260904024050 43 60 0.0 0.0 0.00 0.00 0.00 97 996.4
20260904023024 43 60 0.0 0.0 0.00 0.00 0.00 96 996.4
20260904022534 43 60 0.0 0.0 0.00 0.00 0.00 96 996.5
20260904022050 43 60 0.0 0.0 0.00 0.00 0.00 96 996.5
20260904021536 43 60 0.0 0.0 0.00 0.00 0.00 96 996.5
20260904021020 43 60 0.0 0.0 0.00 0.00 0.00 95 996.4
20260904020545 43 60 0.0 0.0 0.00 0.00 0.00 95 996.4
20260904020036 43 60 0.0 0.0 0.00 0.00 0.00 95 996.4
20260904015530 44 60 0.0 0.0 0.00 0.00 0.00 95 996.6
20260904015041 44 60 0.0 0.0 0.00 0.00 0.00 95 996.6
20260904014527 44 60 0.0 0.0 0.00 0.00 0.00 95 996.6
20260904014035 44 60 0.0 0.0 0.00 0.00 0.00 95 996.5
20260904013550 45 60 0.0 0.0 0.00 0.00 0.00 95 996.5
20260904013032 45 60 0.0 0.0 0.00 0.00 0.00 95 996.5
20260904012034 45 60 0.0 0.0 0.00 0.00 0.00 95 996.6
20260904010533 46 60 0.0 0.0 0.00 0.00 0.00 95 996.7
20260904010028 46 60 0.0 0.0 0.00 0.00 0.00 95 996.8
20260904005533 47 60 0.0 0.0 0.00 0.00 0.00 95 996.8
20260904005052 47 60 0.0 0.0 0.00 0.00 0.00 95 996.8
20260904004532 47 60 0.0 0.0 0.00 0.00 0.00 95 996.8
20260904004039 47 60 0.0 0.0 0.00 0.00 0.00 95 997.0
20260904003554 47 140 0.0 0.0 0.00 0.00 0.00 95 997.0
20260904003052 47 142 0.0 0.0 0.00 0.00 0.00 95 997.0
20260904002557 47 142 0.0 0.0 0.00 0.00 0.00 94 997.1
20260904002030 47 126 0.0 0.0 0.00 0.00 0.00 93 997.1
20260904000530 48 126 0.0 0.0 0.00 0.00 0.00 93 997.2
20260903235521 48 126 0.0 0.0 0.00 0.00 0.00 92 997.3
20260903235025 49 144 0.0 0.0 0.00 0.00 0.00 92 997.3
20260903234537 49 144 0.0 0.0 0.00 0.00 0.00 92 997.3
20260903234027 49 146 0.0 0.0 0.00 0.00 0.00 92 997.5
20260903233535 49 139 0.0 0.0 0.00 0.00 0.00 92 997.5
20260903233039 49 123 0.0 0.0 0.00 0.00 0.00 92 997.5
20260903232556 50 123 0.0 0.0 0.00 0.00 0.00 92 997.5
20260903232043 50 137 0.0 0.0 0.00 0.00 0.00 92 997.5
20260903231537 50 137 0.0 0.0 0.00 0.00 0.00 92 997.5
20260903231022 50 112 0.0 0.0 0.00 0.00 0.00 92 997.6
20260903230531 50 143 1.0 0.0 0.00 0.00 0.00 92 997.6
20260903230026 50 122 0.0 0.0 0.00 0.00 0.00 92 997.6
20260903225533 50 146 0.0 0.0 0.00 0.00 0.00 92 997.5
20260903225049 50 134 0.0 0.0 0.00 0.00 0.00 91 997.5
20260903224558 50 136 0.0 0.0 0.00 0.00 0.00 91 997.5
20260903224057 50 215 0.0 0.0 0.00 0.00 0.00 91 997.6
20260903223521 50 218 0.0 0.0 0.00 0.00 0.00 91 997.6
20260903223054 50 218 0.0 0.0 0.00 0.00 0.00 91 997.6
20260903222528 50 218 0.0 0.0 0.00 0.00 0.00 91 997.6
20260903221525 50 218 0.0 0.0 0.00 0.00 0.00 90 997.6
20260903221032 51 218 0.0 0.0 0.00 0.00 0.00 90 997.6
20260903220539 51 218 0.0 0.0 0.00 0.00 0.00 90 997.6
20260903220058 51 218 0.0 0.0 0.00 0.00 0.00 90 997.6
20260903215520 51 218 0.0 0.0 0.00 0.00 0.00 90 997.6
20260903215028 51 218 0.0 0.0 0.00 0.00 0.00 90 997.6
20260903214534 51 218 0.0 0.0 0.00 0.00 0.00 89 997.6
20260903214047 52 218 0.0 0.0 0.00 0.00 0.00 89 997.5
20260903213535 52 218 0.0 0.0 0.00 0.00 0.00 89 997.5
20260903213054 52 218 0.0 0.0 0.00 0.00 0.00 89 997.5
20260903212534 52 218 0.0 0.0 0.00 0.00 0.00 89 997.6
20260903212021 52 218 0.0 0.0 0.00 0.00 0.00 88 997.6
20260903211536 52 218 0.0 0.0 0.00 0.00 0.00 88 997.6
20260903211023 52 218 0.0 0.0 0.00 0.00 0.00 88 997.6
20260903210532 52 215 0.0 0.0 0.00 0.00 0.00 88 997.6
20260903210028 52 242 0.0 0.0 0.00 0.00 0.00 89 997.6
20260903205535 52 202 0.0 0.0 0.00 0.00 0.00 88 997.6
20260903205048 53 260 0.0 0.0 0.00 0.00 0.00 88 997.6
20260903204538 53 212 0.0 0.0 0.00 0.00 0.00 89 997.6
20260903204024 53 185 0.0 0.0 0.00 0.00 0.00 89 997.7
20260903203541 53 254 0.0 0.0 0.00 0.00 0.00 89 997.7
20260903203053 53 216 0.0 0.0 0.00 0.00 0.00 89 997.7
20260903202526 53 216 0.0 0.0 0.00 0.00 0.00 89 997.8
20260903202104 53 239 0.0 0.0 0.00 0.00 0.00 89 997.8
20260903201542 53 223 0.0 0.0 0.00 0.00 0.00 89 997.8
20260903201035 53 233 0.0 0.0 0.00 0.00 0.00 88 997.9
20260903200538 53 267 0.0 0.0 0.00 0.00 0.00 88 997.9
20260903200026 53 267 0.0 0.0 0.00 0.00 0.00 88 997.9
20260903195535 53 216 0.0 0.0 0.00 0.00 0.00 88 997.9
20260903195023 53 208 0.0 0.0 0.00 0.00 0.00 87 997.9
20260903194538 53 229 0.0 0.0 0.00 0.00 0.00 87 997.9
20260903194026 53 240 0.0 0.0 0.00 0.00 0.00 87 998.0
20260903193531 53 225 0.0 0.0 0.00 0.00 0.00 86 998.0
20260903193030 54 182 0.0 0.0 0.00 0.00 0.00 86 998.0
20260903192537 54 233 0.0 0.0 0.00 0.00 0.00 86 997.9
20260903192025 54 256 0.0 0.0 0.00 0.00 0.00 85 997.9
20260903191537 54 256 0.0 0.0 0.00 0.00 0.00 85 997.9
20260903191023 54 256 0.0 0.0 0.00 0.00 0.00 84 997.8
20260903190539 54 256 0.0 0.0 0.00 0.00 0.00 83 997.8
20260903190050 55 256 0.0 0.0 0.00 0.00 0.00 83 997.8